Location: Damada
(14.7329°N, 3.1761°W)
Time: 08:03:14
(UTC+00:00)

NOSS 3-1 (A) - Pass Details

Date: 18 February 2020
Orbit: 761 x 1452 km, 63.4° (Epoch: 26 March)

Event Time Altitude Azimuth Distance (km) Brightness Sun altitude
Rises 18:25:34 0° 200° (SSW) 3,223 6.7 -2.7°
Reaches altitude 10° 18:27:57 10° 198° (SSW) 2,283 5.9 -3.2°
Maximum altitude 18:33:03 73° 113° (ESE) 803 3.0 -4.5°
Drops below altitude 10° 18:38:26 10° 29° (NNE) 2,402 5.2 -5.7°
Sets 18:40:59 0° 28° (NNE) 3,405 6.0 -6.3°
